Hourly Data Report for August 04, 2017

All times are specified in Local Standard Time (LST). Add 1 hour to adjust for Daylight Saving Time where and when it is observed.

ST. STEPHEN
NEW BRUNSWICK

45°12'36.600" N
67°15'10.300" W
26.10 m
8104935
71607
WSS

Download Data

Hourly Data (August 2017)
Hourly Data Report for August 4, 2017
Temp Definition
°C
Dew Point Temp Definition
°C
Rel Hum Definition
%
Wind Dir Definition
10's deg

Wind Spd Definition
km/h
Visibility Definition
km
Stn Press Definition
kPa
Hmdx Definition


Wind Chill Definition


Weather Definition


TIME
00:00 16.4 15.4 94 10 2   101.73     LegendNANA
01:00 15.4 14.6 96 10 4   101.71     LegendNANA
02:00 14.9 14.2 96 9 3   101.72     LegendNANA
03:00 14.7 14.1 96 10 1   101.73     LegendNANA
04:00 15.1 14.6 97 10 3   101.69     LegendNANA
05:00 15.7 15.3 97 10 3   101.71     LegendNANA
06:00 16.3 15.8 97 9 4   101.74     LegendNANA
07:00 16.7 16.2 97 11 6   101.75     LegendNANA
08:00 17.0 16.4 97 10 5   101.79     LegendNANA
09:00 20.4 16.5 79 8 7   101.78 25   LegendNANA
10:00 23.5 16.8 66 11 7   101.76 29   LegendNANA
11:00 24.6 17.2 63 10 8   101.72 30   LegendNANA
12:00 26.0 18.2 62 9 11   101.67 32   LegendNANA
13:00 26.5 17.7 58 10 9   101.64 32   LegendNANA
14:00 28.5 15.6 45 15 14   101.60 33   LegendNANA
15:00 28.8 15.5 45 17 13   101.54 33   LegendNANA
16:00 27.7 15.3 47 16 18   101.51 32   LegendNANA
17:00 26.6 14.6 48 16 15   101.49 30   LegendNANA
18:00 25.3 14.1 50 17 16   101.47 29   LegendNANA
19:00 23.5 11.4 47 16 8   101.49 25   LegendNANA
20:00 20.7 12.8 60 14 5   101.52     LegendNANA
21:00 18.6 15.1 80 12 5   101.58     LegendNANA
22:00 18.6 16.4 87 11 4   101.57     LegendNANA
23:00 18.2 16.4 89 13 3   101.54     LegendNANA

Notes on Data Quality.

Legend

  • E = Estimated
  • M = Missing
  • NA = Not Available
  • ‡ = Partner data that is not subject to review by the National Climate Archives
Date modified: